Location: Killam
(52.7910°N, 111.8608°W)
Time: 12:31:54
(UTC+00:00)

AO-73 - Pass Details

Date: 11 March 2026
Orbit: 514 x 567 km, 97.8° (Epoch: 13 April)

Event Time Altitude Azimuth Distance (km) Brightness Sun altitude
Rises 12:30:02 0° 5° (N) 2,699 ? -13.0°
Reaches altitude 10° 12:32:28 10° 350° (N) 1,793 ? -12.6°
Maximum altitude 12:35:31 23° 298° (WNW) 1,171 ? -12.2°
Enters shadow 12:36:55 18° 267° (W) 1,319 ? -12.0°
